COSMOS 2535 DEB, 44631

Orbit data source: Space-Track

COSMOS 2535 DEB, 44631 is space debris in SSO originally from a launch on Wed, 10 Jul 2019 UTC launched from the Plesetsk Missile And Space Complex (PKMTR). Debris objects in space refer to the collection of defunct objects orbiting the Earth. Examples of debris include non-operational satellites, rocket bodies, and fragments generated from explosions, collisions, or faulty payload assembly.

Loading next visibility...
Identifier
44631, 2019-039H
Orbit
SSO
Country
Flag of CISCIS
Related business
Manufacturer
Unknown
Mission
Spacecraft
Bus & Motor
Unknown
Mass
Unknown
Launch date (UTC)
2019-07-10 (6 years ago)
Launch vehicle
Unknown
Launch site
Plesetsk Missile And Space Complex (PKMTR)
Object type
Payload
Rocket body
Debris
Shape & HBR
Unknown shape, 0.1 m
Radar Cross Section
Small (<0.1 m²)

Expand to show TLE details & history
Last TLE update: 1 day ago

TLE from 1 day ago
0 COSMOS 2535 DEB
1 44631U 19039H   25305.07354377  .00010419  00000-0  64633-3 0  9991
2 44631  97.5537 342.4667 0022069 124.4469 235.8850 15.09704428330475
Epoch: 2025-11-01T01:45Z
TLE epoch observation values (Epoch: 2025-11-01T01:45:54.181Z)
Latitude
-0.00001°
Longitude
-84.61791°
Altitude
548.759 km
Speed
7.583 km/s
True Right ascension
22h 49m 52s
True Declination
0° 00' 00"
Sunlit
Object was in full shadow at epoch
Visualization orbit readout
Latitude
Unknown
Longitude
Unknown
Altitude
Unknown
Speed
Unknown
Apparent Right ascension
Unknown
Apparent Declination
Unknown
Sunlit
N/A
Visualization observer readout
Local Sidereal Time
00:20:42
Azimuth
Unknown
Elevation
Unknown
Doppler factor
Unknown
Orbital elements
Apogee altitude
549.343 km
Perigee altitude
518.834 km
Semi-major axis
6,912.225 km
Eccentricity
0.00221
Inclination
97.5537°
RAAN
342.4667°
Arg. of periapsis
124.4469°
True anomaly
235.67595°
Mean anomaly
235.885°
Eccentric anomaly
235.78044°
Mean motion
3.77673 °/min
Orbital period
95.32 mins
BSTAR
0.00064633
Loading maneuver chart data...
Computing Atmospheric mass density...

Documentation

Showing up to 5 results
|